TimeMDT,TemperatureF,Dew PointF,Humidity,Sea Level PressureIn,VisibilityMPH,Wind Direction,Wind SpeedMPH,Gust SpeedMPH,PrecipitationIn,Events,Conditions,WindDirDegrees,DateUTC
12:55 AM,44.1,37.0,76,29.72,10.0,NW,18.4,26.5,0.00,,Overcast,310,2013-11-01 06:55:00
1:55 AM,44.1,37.0,76,29.75,10.0,NW,15.0,23.0,0.00,,Overcast,310,2013-11-01 07:55:00
2:55 AM,44.1,37.0,76,29.76,10.0,WNW,11.5,-,N/A,,Overcast,300,2013-11-01 08:55:00
3:55 AM,44.1,36.0,73,29.80,10.0,WNW,18.4,25.3,N/A,,Mostly Cloudy,300,2013-11-01 09:55:00
4:55 AM,39.9,35.1,83,29.83,10.0,West,11.5,-,N/A,,Clear,280,2013-11-01 10:55:00
5:55 AM,41.0,34.0,76,29.86,10.0,WNW,13.8,-,N/A,,Partly Cloudy,290,2013-11-01 11:55:00
6:55 AM,42.1,34.0,73,29.87,10.0,WNW,12.7,21.9,N/A,,Scattered Clouds,300,2013-11-01 12:55:00
7:55 AM,43.0,35.1,74,29.88,10.0,WNW,15.0,-,N/A,,Mostly Cloudy,300,2013-11-01 13:55:00
8:55 AM,45.0,35.1,68,29.88,10.0,WNW,21.9,28.8,N/A,,Clear,290,2013-11-01 14:55:00
9:55 AM,48.9,32.0,52,29.87,10.0,WNW,32.2,44.9,N/A,,Clear,300,2013-11-01 15:55:00
10:55 AM,48.9,30.9,50,29.90,10.0,NW,32.2,46.0,N/A,,Overcast,310,2013-11-01 16:55:00
11:55 AM,48.0,30.0,50,29.94,10.0,NW,31.1,43.7,N/A,,Overcast,320,2013-11-01 17:55:00
12:55 PM,48.0,30.9,52,29.95,10.0,NW,32.2,48.3,N/A,,Mostly Cloudy,320,2013-11-01 18:55:00
1:55 PM,48.9,30.9,50,29.97,10.0,NNW,33.4,43.7,N/A,,Partly Cloudy,330,2013-11-01 19:55:00
2:55 PM,50.0,30.0,46,29.99,10.0,NNW,29.9,41.4,N/A,,Clear,330,2013-11-01 20:55:00
3:55 PM,51.1,28.9,43,30.00,10.0,NNW,23.0,33.4,N/A,,Clear,330,2013-11-01 21:55:00
4:55 PM,50.0,26.1,39,30.04,10.0,NNW,19.6,28.8,N/A,,Clear,330,2013-11-01 22:55:00
5:55 PM,45.0,26.1,48,30.07,10.0,NW,11.5,-,N/A,,Clear,320,2013-11-01 23:55:00
6:55 PM,43.0,27.0,53,30.07,10.0,NW,16.1,-,N/A,,Clear,320,2013-11-02 00:55:00
7:55 PM,41.0,27.0,57,30.09,10.0,NW,15.0,-,N/A,,Clear,320,2013-11-02 01:55:00
8:55 PM,37.0,28.0,70,30.11,10.0,WNW,6.9,-,N/A,,Scattered Clouds,300,2013-11-02 02:55:00
9:55 PM,34.0,27.0,75,30.12,10.0,West,9.2,-,N/A,,Clear,270,2013-11-02 03:55:00
10:55 PM,32.0,26.1,79,30.14,10.0,West,10.4,-,N/A,,Clear,260,2013-11-02 04:55:00
11:55 PM,32.0,26.1,79,30.14,10.0,West,8.1,-,N/A,,Clear,260,2013-11-02 05:55:00